Theta_e
297 297 297 297 297 298 298 299 297 297 297 298 298 298 298 298 298 298 298 298 299 299 299 299 300 300 300 301 302 302 302 302 303 302 302 302 303 303 303 303 304 304 303 303 303 303 303 303 302 301 301 300 299 298 297 297 296 296 295 295 295 295 295 294 294 293 294 294 294
299 298 297 295 295 296 297 298 298 297 297 298 298 298 298 298 298 298 298 299 299 300 300 300 300 301 301 302 302 302 303 302 302 302 302 303 303 303 303 304 304 304 303 303 303 303 302 302 301 301 300 299 298 297 297 296 296 295 295 294 295 295 294 294 294 294 294 294 294
299 298 298 297 297 298 299 299 300 299 299 298 297 297 297 297 298 298 298 299 299 300 300 300 300 300 301 301 302 302 303 303 303 303 303 303 303 303 304 303 303 303 302 303 303 302 302 301 300 299 298 298 297 296 296 296 296 295 295 294 294 294 294 294 294 294 294 294 294
298 298 298 298 299 300 300 300 300 300 298 297 297 297 297 297 297 298 298 299 299 300 300 300 300 300 301 301 302 302 302 302 303 303 303 303 303 303 303 302 302 302 302 302 302 301 300 299 298 298 298 297 297 297 297 297 296 295 295 295 295 294 294 294 294 294 294 294 293
299 299 298 298 298 299 299 299 299 298 298 297 297 297 297 297 297 298 298 298 299 299 300 300 301 301 301 301 302 302 303 302 301 302 304 303 303 303 302 302 302 302 302 302 302 302 301 301 300 299 299 299 298 297 297 296 296 295 295 295 294 294 294 294 294 294 294 293 293
300 299 298 297 297 297 297 297 297 297 297 296 298 298 298 297 297 298 299 299 300 300 300 300 300 300 301 302 302 302 303 303 303 303 303 303 303 302 302 301 301 301 301 301 301 301 301 301 300 299 299 298 297 296 296 296 296 295 295 295 295 295 295 295 295 294 293 292 292
297 297 296 296 295 295 296 296 296 296 296 296 298 299 299 298 298 299 300 300 300 300 300 299 300 300 301 302 301 302 302 302 302 302 302 302 301 301 300 300 300 300 300 300 300 299 299 299 298 298 297 296 296 296 296 296 296 295 295 295 295 295 295 295 294 293 293 292 292
295 295 295 294 294 294 295 295 295 295 296 297 299 299 299 299 299 299 300 300 300 300 300 300 301 302 301 301 301 300 301 301 301 301 301 301 301 300 300 299 299 299 299 299 299 298 298 298 297 296 296 295 295 296 296 296 296 295 295 294 294 294 294 293 293 293 292 292 292
295 294 294 293 293 294 294 294 295 296 297 298 299 299 299 299 299 300 300 300 300 300 300 301 301 301 301 301 300 300 300 300 300 300 300 300 299 299 299 299 299 299 299 299 299 298 298 298 297 297 296 296 296 296 296 296 295 294 294 294 293 293 293 292 292 292 292 291 291
296 295 294 294 294 294 294 294 295 296 297 298 298 298 297 296 298 299 300 300 300 300 300 300 301 301 300 300 300 300 299 299 299 299 299 298 298 298 298 298 298 298 298 298 298 298 298 297 297 297 297 296 296 295 295 294 294 293 293 292 291 291 291 291 290 290 291 291 291
296 295 294 294 295 294 294 294 295 295 296 297 297 296 296 296 298 299 300 299 300 300 300 300 300 300 299 299 299 299 299 299 298 298 298 298 298 297 297 297 297 297 297 297 297 297 297 296 296 296 295 295 295 294 293 293 292 291 291 290 290 290 289 289 289 289 290 290 290
295 294 294 293 293 293 294 295 295 295 295 296 296 296 297 297 298 298 299 299 299 300 300 299 299 299 299 299 298 298 298 298 298 298 298 298 297 297 297 297 297 297 296 296 296 296 295 295 294 294 293 293 293 293 292 291 290 290 290 290 289 289 289 289 289 289 289 289 290
294 294 293 293 292 293 294 295 295 295 295 295 296 296 297 297 297 298 298 299 299 299 299 298 298 298 298 298 298 298 298 298 298 298 298 298 297 297 297 297 296 296 295 295 295 294 293 293 292 292 292 292 292 292 291 290 290 290 290 290 289 289 289 289 289 289 289 289 289
293 293 293 293 292 293 294 294 295 295 295 295 296 296 296 297 296 297 297 298 298 298 297 297 296 297 297 298 298 298 298 298 298 297 297 297 297 296 296 295 294 294 293 294 293 293 292 292 292 292 291 291 291 291 291 290 290 290 290 290 290 289 290 290 290 289 289 289 288
293 293 293 292 292 293 294 294 295 295 295 295 296 296 296 296 296 296 296 297 297 297 297 296 296 296 296 297 297 297 297 297 297 297 296 295 295 294 294 293 293 292 292 293 293 293 292 292 292 291 291 291 291 291 290 290 290 290 290 290 290 290 290 290 290 290 289 289 289
293 293 293 292 292 293 294 294 295 295 295 295 295 295 295 296 296 295 296 297 297 297 296 296 296 296 296 295 295 296 296 295 295 295 294 294 293 293 292 292 292 292 292 292 292 292 292 292 292 292 291 291 291 290 290 290 290 290 290 290 290 290 290 289 290 289 289 289 289
293 293 293 292 293 294 294 295 295 295 295 295 295 295 295 295 295 295 295 295 296 296 296 296 296 296 296 295 294 294 294 294 294 293 293 293 292 292 292 292 292 292 292 292 292 292 292 292 292 291 291 291 291 290 290 290 290 290 290 290 290 290 289 289 289 289 289 289 289
294 293 293 293 293 294 295 295 295 295 295 295 295 295 295 295 295 295 295 295 296 296 296 296 296 296 296 295 295 294 294 294 293 293 293 293 293 292 292 292 292 292 291 292 291 291 291 291 291 291 291 291 290 290 290 290 290 290 289 289 289 289 289 289 289 289 289 289 288
294 294 293 293 293 294 294 295 295 295 295 295 295 295 295 295 295 295 295 295 296 296 297 297 296 296 295 295 294 294 293 294 293 293 293 292 292 292 292 291 291 291 291 291 291 291 290 290 290 290 290 290 290 290 290 289 289 289 289 289 289 289 289 289 289 289 288 288 288
295 294 294 294 294 294 295 295 295 295 295 295 295 295 295 294 294 295 295 295 295 296 296 296 296 295 295 294 294 293 293 293 293 293 292 292 292 291 291 290 290 290 290 290 290 290 290 290 289 289 289 289 289 289 289 289 289 289 289 289 288 288 288 288 288 288 288 288 288
295 294 294 295 295 295 295 295 295 295 295 294 294 294 294 294 294 294 295 295 295 295 295 295 295 294 294 294 294 293 293 292 292 292 292 291 291 290 290 290 290 290 290 290 290 289 289 289 289 289 289 288 288 288 288 288 288 288 288 287 287 287 287 287 287 287 287 287 287
295 295 295 295 295 295 296 295 295 295 294 294 294 294 294 294 294 293 294 294 294 294 294 294 294 293 293 293 292 292 291 291 291 291 290 290 290 289 289 290 289 289 289 289 289 288 288 288 288 288 288 288 287 287 287 287 287 287 286 286 286 286 286 286 286 286 286 286 286
295 296 296 296 295 295 294 294 294 294 294 293 294 294 293 293 292 292 292 293 293 293 293 293 292 291 291 290 290 290 290 290 290 289 289 289 289 289 289 289 289 288 288 288 288 288 288 288 288 287 287 287 287 287 287 286 286 286 286 286 286 286 286 286 286 286 285 285 285
296 296 296 295 294 294 293 293 293 293 293 293 293 293 292 291 291 292 292 292 292 292 291 290 290 289 288 288 288 289 289 289 289 289 288 288 288 288 288 288 288 288 288 288 288 287 287 288 288 287 287 287 287 286 286 286 285 286 286 286 286 286 286 286 286 285 285 285 285
295 295 294 294 293 293 293 293 292 292 292 292 292 292 291 291 291 292 291 291 290 290 289 289 288 288 287 287 287 288 288 288 288 288 288 288 288 288 288 288 288 288 288 287 286 286 286 286 287 287 287 287 287 286 286 286 286 285 285 285 285 285 285 285 285 285 285 285 285
294 294 293 293 292 292 292 292 292 292 292 292 291 292 292 291 291 290 290 290 289 289 289 289 288 288 288 287 288 288 288 288 288 288 288 289 289 289 289 289 288 288 288 287 286 286 286 286 286 286 287 287 287 287 286 286 286 285 285 285 284 284 284 284 285 285 285 285 285
293 293 292 292 292 291 291 291 291 291 291 292 292 291 291 290 289 289 289 289 289 289 289 289 289 288 288 288 288 289 289 289 288 288 289 289 289 289 289 289 288 288 288 287 286 286 286 286 286 286 287 288 287 287 286 286 286 285 285 285 285 285 284 284 284 284 284 285 285
293 292 292 292 291 291 291 291 291 291 291 291 292 291 289 288 288 288 289 289 289 289 289 288 288 288 289 289 289 289 289 289 289 289 289 289 289 288 288 288 288 288 287 286 286 286 286 286 286 286 287 287 287 287 286 285 285 285 285 285 285 285 284 284 284 284 284 284 284
292 291 291 291 291 291 291 291 292 292 292 292 291 289 288 288 288 288 289 289 289 289 289 289 288 289 289 289 289 289 289 289 289 289 289 289 289 289 288 288 288 287 287 286 285 285 285 285 286 286 286 287 287 287 286 286 285 285 285 285 285 284 284 284 284 284 284 284 284
290 291 291 291 291 291 291 291 291 291 291 291 289 288 288 288 288 289 289 289 289 288 288 289 289 289 289 289 289 289 289 289 290 289 289 288 288 288 288 288 287 287 286 285 285 285 285 285 286 286 286 286 286 287 287 286 285 285 284 284 284 284 284 284 284 283 283 283 283
289 290 290 291 291 290 289 288 289 289 290 289 289 288 288 289 289 289 289 288 288 288 287 288 288 288 288 289 289 289 289 289 289 289 289 288 288 288 288 287 286 286 285 284 284 284 285 285 286 286 286 286 286 286 286 286 285 285 284 284 284 284 284 283 283 283 283 283 283
288 289 290 290 289 288 287 286 287 288 289 289 289 289 288 289 288 288 288 288 287 287 287 288 288 288 289 289 289 289 289 289 289 289 289 288 288 287 287 286 286 285 284 283 283 284 284 285 285 285 285 285 285 285 286 285 285 285 284 284 284 283 283 283 283 283 283 283 283
288 289 289 289 287 286 286 287 288 289 289 289 289 289 288 288 288 288 287 287 287 287 288 289 289 289 289 289 289 289 289 289 288 288 288 287 286 285 285 284 284 284 283 283 283 284 284 285 285 285 285 285 285 285 286 285 285 284 284 284 283 283 283 283 283 283 283 283 283
287 288 288 287 286 286 287 288 289 289 290 290 289 289 288 288 288 288 288 288 288 289 289 289 289 289 289 289 288 288 288 287 287 286 286 285 283 283 283 283 284 283 282 282 283 283 284 284 284 284 284 284 285 285 285 284 284 284 283 283 283 283 283 283 283 283 283 283 283
287 288 288 287 287 287 288 289 289 290 290 289 288 288 288 288 288 288 289 289 289 289 289 290 289 289 288 288 288 287 286 285 285 284 283 282 281 281 282 282 283 283 282 282 282 283 283 284 284 284 284 284 284 285 284 284 283 283 283 283 283 283 283 283 283 283 283 283 283
288 288 288 288 288 288 288 289 289 289 289 288 288 288 288 288 289 289 289 289 289 289 289 288 288 288 287 286 286 285 284 283 282 282 281 281 281 281 281 282 282 282 282 281 282 282 283 283 283 284 284 284 284 284 284 283 283 283 283 282 282 282 282 283 283 283 283 283 283
289 289 288 288 288 288 288 289 289 289 289 288 288 288 288 289 289 289 289 289 288 288 287 286 286 285 285 284 283 282 281 280 280 280 280 280 280 280 281 281 282 282 281 281 281 282 282 283 283 283 283 284 284 284 283 283 283 282 282 282 282 282 282 282 283 283 283 283 283
288 288 288 288 288 288 288 288 289 289 289 288 289 289 289 289 289 289 289 288 287 286 285 285 284 283 282 281 281 280 280 280 279 279 280 280 280 280 280 280 281 282 282 281 281 281 282 282 282 283 283 283 283 283 283 282 282 282 281 281 281 282 282 282 282 282 282 283 282
288 289 289 289 288 288 288 288 288 289 289 289 289 289 289 289 288 288 287 285 284 284 283 283 283 282 280 279 279 280 280 279 279 278 279 279 279 279 279 280 281 281 281 281 281 281 281 282 282 282 282 283 283 283 283 282 281 281 281 281 281 281 281 281 282 282 282 282 282
289 289 289 289 288 288 288 288 288 289 289 289 289 288 288 287 287 285 283 281 282 282 282 282 281 280 279 278 279 279 280 280 279 278 278 278 278 278 279 280 281 281 281 280 280 281 281 282 282 282 282 283 283 283 283 282 281 281 280 280 280 280 280 280 281 281 281 282 282
289 289 289 289 288 288 288 288 288 289 289 289 288 287 286 285 284 282 281 280 281 280 280 280 279 278 278 277 278 278 279 280 279 279 278 278 278 278 279 280 280 280 280 280 280 281 281 281 282 282 282 283 283 283 283 282 281 280 279 279 279 279 279 280 280 281 281 281 281
Wind_Speed
3 3 3 2 2 2 2 2 2 3 3 3 3 3 3 3 3 2 2 1 2 2 1 1 1 1 2 2 3 5 6 6 7 7 8 8 8 8 8 8 8 8 8 8 8 7 7 7 6 5 4 4 4 4 4 4 5 4 3 2 1 2 3 3 4 4 5 6 6
3 3 3 2 2 2 3 3 3 3 3 3 3 3 3 2 2 2 1 2 2 2 2 1 2 2 2 3 4 5 6 7 8 8 8 8 8 8 8 8 8 8 8 7 7 6 5 6 5 5 4 3 4 4 4 4 4 4 3 4 3 3 3 4 5 6 6 7 7
2 2 3 3 3 3 3 3 3 3 3 3 2 2 2 2 2 1 1 2 2 2 2 2 2 2 3 3 4 4 5 6 7 8 8 7 8 8 8 8 8 7 7 6 5 5 5 5 4 4 3 3 4 4 4 4 5 5 5 6 4 4 4 4 5 6 6 6 8
3 3 3 4 4 4 4 3 3 3 3 2 2 2 2 2 1 1 2 2 2 2 2 3 3 3 3 4 5 5 5 5 7 7 7 7 7 7 7 7 7 7 7 6 6 5 5 5 4 3 3 4 4 4 4 5 6 6 5 6 5 5 5 5 6 6 6 7 8
3 3 3 4 5 4 4 3 3 3 2 2 2 2 2 1 2 2 2 3 3 3 3 4 4 4 4 5 6 6 6 6 6 6 6 7 7 6 6 6 6 6 6 6 6 6 6 6 4 4 4 4 4 4 5 6 6 6 5 5 6 6 6 6 7 6 6 7 7
3 3 4 4 4 4 4 3 3 3 2 2 2 2 2 2 2 3 3 3 4 4 4 4 4 4 5 6 6 6 6 5 5 5 6 6 6 6 6 6 6 5 5 5 6 6 6 6 4 3 3 3 3 4 6 7 6 6 6 5 5 5 5 6 5 5 5 6 6
4 4 4 4 4 4 3 3 3 3 3 3 3 3 3 3 3 4 4 4 4 5 5 4 5 5 5 6 6 6 6 5 5 6 6 6 6 6 6 6 5 5 5 5 5 5 4 4 3 3 3 3 3 4 6 7 6 6 5 5 4 4 4 5 4 4 5 7 8
4 4 4 3 3 3 3 3 3 4 4 4 3 4 4 5 5 5 5 5 5 5 5 5 6 6 6 6 6 6 6 6 6 6 6 6 6 6 6 6 6 6 6 6 5 5 4 3 2 3 3 3 3 4 5 6 6 6 5 5 4 4 4 4 4 4 5 7 8
4 3 3 3 3 3 4 4 5 5 5 4 4 4 5 6 6 6 6 5 5 5 5 5 6 6 6 6 6 6 6 6 6 6 6 6 6 7 6 6 6 6 6 6 6 6 5 4 3 3 3 3 3 3 4 5 6 6 6 6 5 4 4 4 4 5 6 6 7
3 3 3 3 3 4 4 5 6 6 6 5 5 5 5 5 6 6 6 5 5 5 6 5 6 6 6 6 6 6 6 5 6 6 6 6 7 7 6 6 6 6 6 5 5 5 5 4 3 3 3 3 4 4 4 5 6 6 6 5 5 5 5 4 5 5 5 6 6
3 3 3 3 4 5 5 6 6 6 5 5 5 5 5 6 6 6 6 5 6 7 7 6 7 7 6 6 6 5 5 5 5 6 6 6 6 6 6 6 6 5 5 5 4 4 4 3 4 4 4 4 4 4 4 5 5 6 6 5 4 5 5 5 5 5 5 5 6
4 4 4 4 4 5 5 6 5 5 5 5 5 5 6 6 7 7 6 6 7 7 7 7 7 7 6 5 5 5 5 5 6 6 6 6 6 6 6 5 5 5 4 4 4 3 3 4 4 4 5 4 4 4 4 4 5 5 5 5 5 5 5 5 5 5 4 5 5
4 4 4 5 5 5 6 5 4 4 5 5 5 5 6 6 6 7 7 7 7 7 6 6 6 6 5 5 5 5 5 5 6 6 6 6 5 5 5 4 4 4 4 4 4 4 4 4 4 4 4 4 3 3 3 4 5 5 5 5 5 5 5 5 5 5 4 5 5
5 5 5 5 5 5 5 5 4 4 5 6 6 6 5 5 6 6 7 7 7 6 6 6 5 5 5 5 5 5 5 5 6 5 5 4 4 4 4 3 3 3 4 4 4 4 4 4 4 4 3 3 3 3 3 4 4 4 4 4 5 5 5 5 5 5 5 5 6
5 5 5 5 5 5 5 5 4 4 5 6 6 5 5 5 5 6 6 7 7 6 6 6 5 5 5 5 5 5 5 5 5 5 4 4 3 3 3 3 3 3 4 4 4 4 4 4 3 3 3 3 3 3 3 3 3 3 4 4 4 5 5 5 5 5 5 6 7
6 6 5 5 5 5 5 5 4 4 5 6 6 5 5 5 5 6 6 6 6 5 6 6 6 5 5 4 4 5 5 4 4 4 3 3 3 3 3 3 3 3 3 3 3 3 3 3 3 2 2 2 2 2 2 3 3 3 4 4 4 5 5 5 5 6 6 6 7
6 6 5 5 5 6 6 5 5 5 5 6 6 6 6 5 5 6 6 6 6 6 6 7 6 5 5 4 4 4 4 4 3 3 3 2 2 2 2 2 2 2 2 2 2 2 2 2 2 2 2 2 2 2 2 2 3 3 4 4 4 5 5 6 6 6 7 7 8
6 5 5 5 6 6 7 7 6 6 7 7 7 7 6 6 6 6 6 7 6 7 7 7 6 5 4 4 3 3 3 3 2 2 2 2 1 1 1 1 1 1 1 1 1 1 1 1 1 1 1 1 2 2 2 3 3 3 4 4 5 5 6 6 6 7 7 8 8
5 5 5 5 6 7 7 8 8 8 8 8 7 7 7 7 7 7 7 7 7 7 7 6 5 4 3 2 2 2 2 2 2 1 1 0 0 0 1 1 1 1 1 1 1 1 1 1 1 0 1 1 2 2 2 3 3 4 4 5 5 6 6 6 7 7 7 8 9
5 5 5 6 7 7 8 8 8 8 8 7 7 7 7 7 7 7 7 7 6 5 5 4 4 3 2 1 1 1 1 1 1 1 1 1 1 1 2 2 2 2 2 2 2 2 2 1 1 1 1 2 2 2 3 3 3 4 4 5 5 6 6 7 7 7 8 8 8
6 6 6 7 7 7 8 8 8 8 8 8 8 8 8 7 7 6 6 5 4 3 3 2 2 1 1 1 0 0 0 1 1 2 2 2 2 2 2 2 2 2 2 2 2 2 2 2 2 2 2 2 2 3 3 3 4 4 5 5 5 5 6 6 7 7 7 7 8
7 7 7 7 7 7 7 7 7 7 7 7 7 7 6 6 5 4 3 2 2 2 2 1 1 1 1 1 1 1 1 2 2 2 2 2 2 2 2 2 3 3 3 3 3 2 2 2 2 2 2 2 3 3 3 4 4 5 5 5 5 6 6 6 6 6 6 7 7
8 7 7 7 6 6 6 7 7 7 7 6 6 5 4 3 3 2 2 2 2 2 2 2 2 2 2 2 2 2 2 2 2 2 2 2 3 3 2 2 3 3 3 3 2 2 2 2 2 2 2 3 3 4 4 4 4 5 5 5 6 6 6 5 5 5 6 6 6
8 7 6 5 5 6 6 6 6 6 5 4 3 2 2 2 2 2 2 3 3 3 3 3 3 3 3 3 3 3 3 3 3 2 2 2 2 2 2 2 2 3 3 2 2 2 2 2 2 2 2 3 3 4 4 4 4 5 5 5 6 6 6 6 5 5 6 6 7
7 6 6 5 6 6 6 6 5 4 3 2 0 1 2 2 2 2 3 3 4 4 4 4 4 3 3 4 4 3 3 3 3 3 3 3 3 3 2 2 2 2 2 2 2 2 3 3 3 3 3 3 3 4 4 4 4 4 4 5 5 6 6 7 7 7 7 8 8
5 6 6 6 6 5 5 4 3 2 1 1 2 3 3 3 3 3 4 4 4 4 4 4 4 3 4 4 4 3 3 3 3 3 3 4 4 4 3 3 3 2 2 3 3 3 4 5 5 4 4 4 4 4 4 4 4 4 4 4 5 6 7 8 9 10 10 9 10
5 5 5 4 4 3 3 2 1 1 2 3 4 4 3 3 3 4 4 5 4 4 3 3 4 4 4 4 4 4 3 2 2 2 3 4 4 4 4 3 3 2 2 4 4 5 5 6 6 6 5 4 4 3 3 3 3 3 4 5 6 7 8 9 10 11 11 11 11
5 4 4 3 2 1 0 1 2 3 3 4 4 4 4 4 4 4 5 4 4 4 4 4 4 3 3 3 4 3 3 3 2 2 2 3 3 4 4 3 3 3 4 5 6 6 7 7 7 6 6 4 3 3 3 3 4 4 5 6 7 8 9 9 10 10 11 11 11
4 3 3 2 1 1 1 2 3 3 4 4 4 4 5 5 5 4 4 5 5 5 5 4 4 3 3 3 3 3 3 3 3 3 3 3 4 4 4 4 4 4 5 6 7 7 7 7 6 6 6 5 3 3 3 4 5 6 6 7 7 8 9 9 9 9 10 10 10
2 2 2 1 1 1 2 2 2 3 3 4 5 5 6 6 6 6 7 7 7 6 5 4 3 3 3 3 2 2 2 2 3 3 3 4 5 5 5 5 5 5 6 6 7 7 7 7 6 6 6 6 5 5 5 5 6 6 7 7 8 9 10 10 10 10 10 10 10
2 2 1 1 1 2 2 2 2 3 4 5 6 7 7 8 8 8 7 6 5 4 3 2 2 2 2 1 2 2 3 3 3 4 4 5 5 6 6 6 6 5 5 6 7 7 7 7 7 7 7 7 6 6 6 6 7 7 7 7 8 9 10 10 10 10 11 11 11
2 2 1 2 2 3 3 3 4 4 5 7 7 7 8 7 7 5 3 2 1 1 1 1 1 2 2 3 3 3 4 4 4 5 5 5 5 6 6 6 6 5 5 6 7 7 7 7 7 8 8 8 7 7 7 7 7 7 8 8 9 9 9 9 9 10 11 11 11
2 1 2 3 3 4 4 4 5 6 6 6 7 6 6 5 4 3 2 1 2 2 2 2 3 3 3 3 4 4 4 5 5 5 5 5 5 6 6 6 5 4 5 6 7 7 8 8 9 9 9 9 8 8 8 7 7 7 7 8 9 9 10 10 10 10 11 11 11
2 2 3 4 5 5 5 6 6 6 5 5 5 5 5 4 4 3 3 3 3 3 3 3 3 3 3 4 4 4 4 4 5 5 5 5 5 5 5 4 3 4 5 7 8 8 9 9 10 10 11 11 9 8 8 8 7 7 8 9 9 9 9 10 10 11 11 12 11
3 4 5 5 6 6 6 6 5 5 4 4 4 4 4 4 4 4 3 3 3 3 3 3 3 3 3 3 3 4 4 5 5 5 4 4 4 4 4 4 4 4 6 8 8 9 10 10 11 11 11 10 8 8 8 8 8 8 9 9 10 10 10 10 11 11 11 11 12
5 6 6 7 6 6 6 5 4 4 4 4 4 4 4 4 4 3 3 3 3 3 3 3 3 3 3 3 3 3 3 4 4 4 4 3 3 4 4 4 4 5 7 8 9 10 10 11 11 12 11 10 8 7 7 7 7 8 9 10 10 10 11 11 10 10 11 10 11
6 7 7 7 6 5 5 4 4 4 4 4 4 4 4 4 4 3 3 2 2 2 2 2 2 2 2 3 3 3 3 3 3 4 3 3 3 3 4 4 5 6 7 8 9 10 11 11 12 12 11 9 8 7 7 7 6 7 8 9 10 10 10 9 9 10 10 10 10
7 7 7 6 5 5 4 4 4 4 4 4 4 3 3 3 3 3 2 1 1 1 1 1 1 2 2 3 3 3 3 2 3 3 3 3 3 3 4 5 5 6 6 8 9 11 11 11 12 11 11 9 8 7 7 6 6 7 8 8 8 9 9 8 8 8 9 10 11
7 6 6 5 5 5 5 5 4 4 4 4 3 3 3 2 2 2 2 1 1 0 1 1 1 2 2 3 3 3 3 2 2 2 3 3 3 3 4 5 6 6 7 8 10 11 11 11 12 12 11 9 8 7 6 6 7 7 8 8 8 8 9 8 7 7 8 10 12
6 5 5 5 5 5 5 4 4 3 3 3 3 2 2 2 2 3 3 2 2 1 1 1 1 2 2 2 2 3 3 2 2 2 2 3 3 3 4 5 6 7 7 8 10 11 11 12 12 12 11 9 8 6 6 6 7 8 8 8 8 8 8 8 7 7 8 9 11
4 4 5 5 4 4 4 4 3 3 2 2 1 1 1 2 3 3 3 2 2 2 1 1 1 2 2 2 2 2 2 2 2 2 2 3 3 4 4 5 6 7 7 8 9 10 11 12 12 12 11 9 8 6 6 6 7 8 9 9 8 8 7 8 8 8 8 9 9
Wind_Direction
219 220 222 225 227 232 239 245 242 241 244 250 253 251 248 246 245 241 227 212 217 216 212 208 202 185 163 145 127 119 115 112 109 108 108 110 110 109 105 100 96 94 93 92 91 90 89 89 88 87 85 84 85 86 88 90 89 87 89 108 145 174 189 200 211 221 228 233 235
229 225 224 222 226 234 242 246 240 234 233 235 239 241 240 238 238 232 218 208 209 200 190 178 175 164 150 138 127 121 119 118 115 112 109 107 107 106 104 100 100 100 100 101 102 103 104 106 107 108 108 107 107 108 111 114 117 130 153 176 184 193 201 210 220 228 233 237 236
240 232 229 227 227 229 233 237 236 233 231 230 228 228 227 226 223 216 207 202 198 190 179 168 162 152 142 133 125 122 121 122 121 118 115 112 112 112 113 114 115 115 116 116 118 120 121 121 119 121 124 129 132 135 139 144 151 162 175 185 190 197 206 215 224 229 232 233 231
237 232 231 231 232 233 235 240 242 240 237 233 225 220 216 211 203 196 192 191 190 185 177 168 159 153 146 136 130 127 126 126 125 123 121 122 123 125 126 129 132 133 135 136 137 135 132 128 124 125 135 142 147 153 159 163 169 175 183 189 194 199 205 210 216 219 222 225 227
235 228 229 236 241 244 249 253 253 251 246 235 223 211 198 187 183 184 187 190 187 181 175 168 161 155 150 143 136 134 133 133 131 130 130 131 134 136 139 143 146 149 151 153 153 152 149 147 146 149 154 157 160 165 169 172 179 185 192 197 201 204 207 211 215 218 221 225 226
240 231 228 234 243 251 257 257 257 255 248 231 219 204 188 179 183 187 189 187 178 171 167 166 162 158 154 150 146 144 144 145 145 141 140 140 142 145 147 150 153 154 155 155 155 156 156 155 151 150 153 156 164 174 179 182 189 196 202 207 210 214 219 223 229 234 237 239 238
246 241 236 235 239 246 252 255 251 245 237 227 215 202 190 185 189 190 188 181 173 168 168 171 172 168 164 160 157 157 156 155 154 151 148 146 148 149 150 151 151 150 148 148 148 149 149 145 139 143 152 162 177 188 194 196 201 208 216 221 224 230 238 244 249 252 252 250 246
249 247 243 240 239 243 246 246 238 231 225 221 213 201 191 186 188 188 186 183 180 176 175 178 180 178 173 168 167 165 163 161 158 155 153 150 151 152 151 151 149 148 147 147 149 150 151 149 152 162 172 180 190 198 202 206 213 222 233 239 243 247 251 257 257 255 252 250 246
242 238 233 231 229 230 231 232 229 226 222 217 211 202 194 189 188 188 188 189 185 181 180 184 185 184 181 175 172 170 167 163 160 159 158 158 158 157 156 155 154 154 155 157 161 164 167 170 177 182 188 194 202 207 208 209 219 227 235 242 246 247 247 248 249 248 248 247 245
239 229 220 219 217 218 220 223 223 222 221 218 210 203 198 196 195 193 192 189 183 182 185 190 189 189 187 183 178 173 169 165 164 165 167 168 166 165 164 162 163 164 167 170 173 178 183 190 198 204 208 214 220 220 217 213 221 227 233 238 242 242 241 237 235 237 240 243 245
241 231 222 221 218 217 217 219 219 219 219 219 211 204 200 201 202 200 194 186 183 186 189 191 191 191 190 187 182 178 174 173 173 174 176 176 174 173 171 170 172 175 177 178 181 187 195 207 218 223 227 230 232 229 223 217 223 227 230 234 235 237 237 234 230 231 236 242 248
241 234 229 227 224 221 219 219 220 220 221 223 217 211 206 205 203 200 194 188 188 190 190 190 193 193 192 188 186 184 183 185 185 185 185 183 181 180 179 179 182 184 184 180 186 196 208 216 225 229 231 229 229 226 221 216 219 222 224 224 224 227 233 236 233 234 239 246 253
241 238 235 231 227 224 223 223 225 226 227 228 224 219 213 209 203 199 195 194 194 192 189 189 194 196 196 191 190 192 194 196 197 196 194 189 187 187 188 189 190 191 189 183 188 197 206 210 217 222 224 220 215 211 209 210 215 219 220 219 220 227 234 241 242 244 247 252 256
241 240 238 233 227 225 225 227 229 232 233 234 230 226 219 211 204 202 201 200 198 193 187 185 193 199 201 198 199 202 204 206 206 204 202 195 191 192 193 193 191 191 188 181 183 188 194 195 198 204 209 210 206 200 199 206 215 222 227 228 231 237 244 250 252 253 254 255 258
241 239 237 232 227 226 228 230 233 235 236 237 233 228 221 213 206 205 207 206 200 193 186 184 190 197 204 208 212 213 214 214 213 211 207 197 187 184 186 184 183 183 181 175 175 179 183 184 185 190 198 206 206 200 197 203 218 229 239 243 248 253 258 262 262 260 259 259 263
241 238 233 227 225 227 230 232 236 238 238 239 233 226 220 214 207 206 208 207 199 192 187 188 190 193 200 208 218 222 223 221 219 216 210 194 177 172 172 175 175 174 172 169 168 168 170 172 176 185 196 209 219 217 212 213 225 235 243 249 256 261 265 267 267 265 263 263 264
241 236 229 223 226 230 234 237 239 240 240 240 232 224 217 213 208 205 204 203 197 192 189 190 191 194 199 204 213 222 227 225 220 215 206 190 177 171 169 168 165 163 162 160 156 152 152 154 163 177 195 215 232 237 237 234 239 244 248 251 255 259 263 266 267 267 266 264 265
241 235 228 225 229 234 239 242 244 244 243 241 233 224 216 211 207 204 202 199 195 191 190 191 194 199 204 206 210 220 228 226 218 212 205 195 186 173 151 135 134 136 134 126 107 89 87 108 142 173 202 223 238 245 249 249 251 253 254 257 258 260 261 263 265 266 266 266 266
244 238 232 230 234 239 243 247 249 249 247 243 235 226 217 210 206 202 198 195 193 192 192 193 196 200 205 208 206 214 227 233 227 225 224 245 337 34 54 73 88 89 83 64 47 34 25 20 10 284 250 247 252 254 255 255 256 257 258 259 259 260 260 261 262 264 265 267 269
251 245 239 236 239 243 247 252 254 254 252 247 237 227 218 209 205 201 197 192 191 193 195 195 195 196 196 194 194 198 216 267 283 306 337 3 21 34 44 54 61 62 56 44 33 22 9 357 338 306 281 271 268 265 263 261 260 260 260 260 259 260 261 263 265 266 268 268 270
256 250 246 243 244 248 253 257 261 261 257 251 239 229 219 207 202 199 195 186 183 185 189 187 183 179 171 168 172 132 60 11 358 2 11 21 31 36 38 36 38 39 39 35 27 15 0 343 326 308 293 279 272 270 268 267 264 261 259 258 259 260 262 265 266 267 268 269 269
257 253 251 249 251 255 261 267 269 267 261 253 242 231 219 203 195 188 177 156 156 157 155 134 115 95 75 55 42 45 48 47 33 27 25 28 35 34 28 21 23 26 29 30 22 9 350 328 310 295 282 274 267 263 261 262 263 263 261 259 260 261 261 262 263 264 265 266 267
258 257 257 258 262 269 274 278 276 272 266 258 248 234 214 190 171 150 129 117 117 111 104 95 84 74 63 52 45 45 50 58 54 46 37 30 33 30 25 19 23 27 28 27 17 0 335 312 291 273 262 259 259 256 254 252 256 259 262 264 265 265 264 262 261 262 263 264 264
261 264 271 280 288 292 292 291 288 282 277 270 258 229 178 134 119 110 104 99 95 92 89 86 81 76 70 63 54 48 46 51 54 52 46 38 34 29 24 23 30 31 29 24 6 338 316 309 296 280 266 256 255 253 250 247 251 257 264 270 274 276 276 275 270 267 266 268 269
274 285 297 308 309 309 307 305 300 296 290 280 195 131 119 109 109 105 100 95 93 91 90 89 86 83 79 73 65 57 49 43 41 38 35 31 29 23 19 20 26 25 21 12 344 317 308 307 301 295 284 270 259 253 249 247 250 256 264 272 278 284 287 288 285 282 280 280 282
303 310 313 316 315 314 312 309 302 292 264 152 130 124 121 116 113 109 105 102 98 95 92 91 86 81 77 75 70 65 56 46 38 28 21 17 14 10 6 4 9 9 3 351 336 321 310 300 292 286 279 273 264 258 255 253 249 251 258 268 276 284 290 294 294 294 293 291 290
314 313 312 314 314 313 309 298 254 166 141 130 126 122 119 118 117 114 110 106 102 98 91 83 75 71 67 66 60 55 48 41 36 25 14 6 359 354 349 344 346 343 334 327 319 310 300 291 283 277 272 269 266 265 267 271 263 259 262 271 280 287 291 295 296 297 296 294 293
306 306 306 305 306 301 249 151 134 127 123 121 119 116 114 115 114 112 108 104 97 86 75 66 60 57 53 50 45 38 30 19 13 6 357 347 339 332 325 318 313 307 303 303 300 296 292 287 284 281 279 274 266 261 263 274 278 281 283 286 289 291 292 293 293 293 293 293 293
298 296 292 285 267 151 129 122 120 121 121 120 116 113 109 105 101 93 83 71 60 53 49 47 44 42 39 35 25 15 3 350 342 334 327 319 311 304 299 296 293 292 293 295 295 294 293 292 291 290 290 289 282 275 275 280 287 292 294 294 294 294 293 292 293 293 293 293 292
282 274 260 229 160 127 112 99 103 109 113 113 110 105 98 87 75 62 52 45 40 35 31 27 29 29 27 17 358 338 323 314 308 302 296 292 289 288 287 286 288 291 295 298 299 299 298 297 295 294 294 295 291 289 289 290 292 293 294 293 293 293 293 293 293 292 291 291 292
254 238 217 178 134 99 74 58 64 80 93 99 97 92 84 74 63 55 49 43 34 26 17 13 14 7 349 316 298 291 287 284 282 280 280 283 287 290 292 293 294 297 300 303 303 302 302 299 297 295 294 295 292 291 292 292 291 291 291 291 292 293 293 292 291 291 291 291 291
230 213 187 140 98 74 63 62 74 85 93 95 92 87 81 75 70 67 65 55 26 334 307 301 298 290 284 281 281 281 281 280 281 284 290 297 301 303 304 303 303 304 306 309 309 308 306 302 298 296 294 294 292 290 289 288 288 288 288 288 289 290 290 291 291 291 291 290 289
204 178 137 106 89 82 83 88 94 97 98 98 96 95 95 94 99 111 138 185 212 228 240 255 268 277 284 286 285 284 284 285 292 301 309 316 316 313 310 306 307 312 318 320 318 314 309 303 298 295 294 294 291 289 287 287 287 287 288 289 290 290 290 289 289 288 288 287 286
158 133 113 104 102 101 102 104 106 107 109 110 113 116 121 128 139 156 177 198 212 224 237 252 267 277 282 286 290 295 300 306 315 323 329 331 325 318 312 309 314 323 327 325 321 316 309 302 298 296 295 295 292 290 290 291 289 289 291 293 294 294 293 291 288 286 285 285 284
139 126 117 113 113 113 114 116 120 125 131 138 143 146 147 150 158 169 184 200 215 230 244 255 266 274 281 289 301 311 318 323 328 332 336 336 328 320 315 313 318 325 327 325 320 315 309 303 299 298 298 296 292 291 291 293 293 294 296 297 297 296 294 292 289 287 285 284 283
134 127 122 120 120 122 127 135 144 154 163 169 170 168 166 164 167 174 185 200 218 235 251 264 274 287 299 312 323 331 335 335 331 331 333 335 329 324 320 320 321 324 325 323 318 313 309 304 302 301 300 297 294 292 294 295 296 297 299 298 297 296 295 293 291 288 287 285 286
134 127 123 123 128 137 149 162 172 180 184 187 185 181 175 170 169 173 181 197 220 240 260 279 296 315 330 336 337 341 343 340 332 328 329 333 331 327 323 320 320 320 319 317 314 311 309 306 305 305 303 299 296 296 297 298 299 299 299 298 297 297 297 295 293 291 289 288 287
128 124 125 132 146 160 173 185 192 194 193 192 190 187 180 171 166 163 165 182 219 253 281 303 327 346 350 344 335 334 336 337 331 326 325 329 330 325 318 313 312 312 312 312 311 310 309 309 309 309 307 301 300 300 301 301 300 300 300 300 300 301 301 299 296 293 290 287 284
123 126 137 155 169 180 188 197 200 199 197 193 194 191 185 171 148 127 110 94 80 5 335 337 355 0 357 343 332 328 330 336 332 326 322 324 320 311 305 303 304 306 307 308 308 309 310 310 311 311 310 303 301 301 302 301 300 301 302 304 304 304 303 300 297 293 290 287 284
129 144 163 178 184 189 193 197 199 200 199 199 197 190 172 137 104 89 82 77 71 63 45 20 11 4 354 342 330 326 327 333 335 327 321 316 308 300 295 295 298 301 302 304 306 308 310 312 314 314 313 306 305 303 302 302 303 305 307 308 307 305 303 300 296 293 290 289 286
151 173 187 192 193 193 194 195 196 200 204 204 189 141 89 81 80 80 80 80 75 67 56 39 23 9 358 346 333 327 325 326 334 335 325 313 304 297 293 292 294 297 300 303 306 309 312 314 316 317 317 313 311 308 307 307 307 309 309 309 308 306 303 300 297 293 290 289 288